Regional Weather Roundup
Issued by NWS

Home | Current Version | Previous Version | Graphics & Text | Print | Product List | Glossary On
Versions: 1 2 3 4 5 6 7 8 9 10 11 12 13 14 15 16 17 18 19 20 21 22 23 24 25 26 27 28 29 30 31 32 33 34 35 36 37 38 39 40 41 42 43 44 45 46 47 48 49 50
000
ASUS43 KOAX 272010
RWRNE

WEATHER ROUNDUP FOR NEBRASKA
NATIONAL WEATHER SERVICE OMAHA NE
300 PM CDT SUN JUL 27 2014

NOTES: SATELLITE DATA IS BEING USED TO AUGMENT CLOUD COVER ABOVE
       12000 FEET.
       "FAIR" INDICATES FEW OR NO CLOUDS BELOW 12,000 FEET WITH NO
       SIGNIFICANT WEATHER AND/OR OBSTRUCTIONS TO VISIBILITY.

  * THESE STATIONS DO NOT REPORT WEATHER SUCH AS RAIN...SNOW OR FOG.

NEZ001>004-019>022-054>056-272100-
NEBRASKA PANHANDLE

CITY           SKY/WX    TMP DP  RH WIND       PRES   REMARKS
SCOTTSBLUFF    SUNNY     83  50  31 S9        30.32F
ALLIANCE       PTSUNNY   84  46  26 N10       30.31F
CHADRON        SUNNY     84  45  25 CALM      30.27F
KIMBALL        SUNNY     82  47  29 E7G18     30.34F
SIDNEY         MOSUNNY   84  43  23 MISG      30.35S
$$

NEZ057>060-069>072-079>082-272100-
SOUTHWEST NEBRASKA

CITY           SKY/WX    TMP DP  RH WIND       PRES   REMARKS
NORTH PLATTE   SUNNY     85  49  28 N8G23     30.24F
IMPERIAL       MOSUNNY   85  46  25 NW5       30.28F
LEXINGTON      SUNNY     85  52  31 N9G16     30.22F
MCCOOK         SUNNY     88  46  23 VRB5      30.24F
OGALLALA       CLOUDY    81  47  29 NE6       30.28F
$$

NEZ005>010-023>029-035>040-094-272100-
NORTH CENTRAL NEBRASKA

CITY           SKY/WX    TMP DP  RH WIND       PRES   REMARKS
VALENTINE      SUNNY     82  48  30 NW14G20   30.24F
AINSWORTH      SUNNY     80  47  32 N12G25    30.24S
BROKEN BOW     SUNNY     84  53  34 N14G23    30.22F
O`NEILL        MOSUNNY   82  49  32 NW20G28   30.19S
ORD            SUNNY     83  52  34 N13       30.19R
THEDFORD       SUNNY     84  50  30 N16G22    30.26F
$$

NEZ041-046>049-061>064-073>077-083>087-272100-
SOUTH CENTRAL NEBRASKA

CITY           SKY/WX    TMP DP  RH WIND       PRES   REMARKS
GRAND ISLAND   SUNNY     85  52  32 NW20G29   30.18F
AURORA         SUNNY     82  56  40 NW10G18   30.17S
HASTINGS       SUNNY     84  50  30 N14G23    30.19F
HEBRON         SUNNY     84  49  29 N9G22     30.15F
HOLDREGE       SUNNY     84  51  32 N13G20    30.21F
KEARNEY *      SUNNY     84  50  30 NW15      30.20F
YORK           SUNNY     82  57  42 NW14      30.16S
$$

NEZ011>018-030>034-042>045-272100-
NORTHEAST NEBRASKA

CITY           SKY/WX    TMP DP  RH WIND       PRES   REMARKS
NORFOLK        MOSUNNY   81  57  43 N17G26    30.14S
ALBION         SUNNY     80  57  46 N14G22    30.16S
BLAIR          MOSUNNY   78  55  45 NW21G26   30.10S
COLUMBUS *     MOSUNNY   81  59  47 NW17      30.15S
FREMONT        MOSUNNY   82  57  42 NW17G28   30.13R
WAYNE          MOSUNNY   77  59  53 N10G26    30.14S
$$

NEZ050>053-065>068-078-088>093-272100-
SOUTHEAST NEBRASKA

CITY           SKY/WX    TMP DP  RH WIND       PRES   REMARKS
LINCOLN        SUNNY     86  56  35 N17G23    30.13R
OMAHA EPPLEY   MOSUNNY   83  56  39 N17G28    30.09R
BEATRICE       SUNNY     83  58  42 NW22      30.13S
NEBRASKA CITY  SUNNY     82  56  41 NW20G25   30.09S
PLATTSMOUTH    SUNNY     82  54  37 NW21G26   30.09S
$$

NEZ044-045-051>053-067-272100-
OMAHA AREA

CITY           SKY/WX    TMP DP  RH WIND       PRES   REMARKS
OMAHA EPPLEY   MOSUNNY   83  56  39 N17G28    30.09R
BLAIR          MOSUNNY   78  55  45 NW21G26   30.10S
FREMONT        MOSUNNY   82  57  42 NW17G28   30.13R
MILLARD        MOSUNNY   81  58  46 NW21G28   30.09S
OFFUTT AFB     SUNNY     83  58  43 NW15G23   30.08S
PLATTSMOUTH    SUNNY     82  54  37 NW21G26   30.09S
WAHOO          FAIR      81  57  44 NW16G24   30.12S
$$



USA.gov is the U.S. government's official web portal to all federal, state and local government web resources and services.